Terminal Aerodrome Forecast
Issued by NWS Billings, MT

Home | Current Version | Previous Version | Graphics & Text | Print | Product List | Glossary On
Versions: 1 2 3 4 5 6 7 8 9 10 11 12 13 14 15 16 17 18 19 20
000
FTUS45 KBYZ 231135
TAFMLS
TAF
KMLS 231135Z 2312/2412 05012KT P6SM SCT007 BKN100
      TEMPO 2312/2314 BKN007
     FM231900 10015KT P6SM BKN090
     FM240300 33010KT P6SM VCSH SCT025 BKN050=

USA.gov is the U.S. government's official web portal to all federal, state and local government web resources and services.